Hourly Data Report for September 13, 2017

All times are specified in Local Standard Time (LST). Add 1 hour to adjust for Daylight Saving Time where and when it is observed.

TORONTO INTL A
ONTARIO

43°40'36.000" N
79°37'50.000" W
173.40 m
6158731
71624
YYZ

Download Data

Hourly Data (September 2017)
Hourly Data Report for September 13, 2017
Temp Definition
°C
Dew Point Temp Definition
°C
Rel Hum Definition
%
Wind Dir Definition
10's deg

Wind Spd Definition
km/h
Visibility Definition
km
Stn Press Definition
kPa
Hmdx Definition


Wind Chill Definition


Weather Definition


TIME
00:00 Legend Double Dagger 16.2 11.5 74 34 12 24.1 99.18     LegendNANA
01:00 Legend Double Dagger 14.7 11.0 78 4 3 24.1 99.17     Clear
02:00 Legend Double Dagger 14.2 11.2 82 2 9 24.1 99.14     LegendNANA
03:00 Legend Double Dagger 13.0 10.4 84 29 4 24.1 99.10     LegendNANA
04:00 Legend Double Dagger 12.3 9.9 85 31 7 24.1 99.09     Clear
05:00 Legend Double Dagger 12.4 10.1 86 1 10 24.1 99.10     LegendNANA
06:00 Legend Double Dagger 13.0 10.0 82 32 4 24.1 99.12     LegendNANA
07:00 Legend Double Dagger 14.3 10.7 78 1 8 24.1 99.13     Mainly Clear
08:00 Legend Double Dagger 16.9 11.6 70 4 7 24.1 99.11     LegendNANA
09:00 Legend Double Dagger 18.1 13.5 74 14 7 24.1 99.11     LegendNANA
10:00 Legend Double Dagger 19.3 14.7 74 9 6 24.1 99.08     Mostly Cloudy
11:00 Legend Double Dagger 22.8 15.1 62 15 8 24.1 99.03 27   LegendNANA
12:00 Legend Double Dagger 23.5 14.5 56 10 7 24.1 98.96 27   LegendNANA
13:00 Legend Double Dagger 24.6 12.1 45 14 14 24.1 98.90 27   Mainly Clear
14:00 Legend Double Dagger 24.5 11.4 43 18 16 24.1 98.87 26   LegendNANA
15:00 Legend Double Dagger 23.4 13.2 52 13 9 24.1 98.82 26   LegendNANA
16:00 Legend Double Dagger 23.7 13.2 51 14 11 24.1 98.80 27   Clear
17:00 Legend Double Dagger 23.2 13.4 54 13 13 24.1 98.80 26   LegendNANA
18:00 Legend Double Dagger 21.1 14.6 66 15 10 24.1 98.81 25   LegendNANA
19:00 Legend Double Dagger 19.7 14.8 73 17 9 24.1 98.83     Mainly Clear
20:00 Legend Double Dagger 18.7 15.5 81 16 8 24.1 98.88     LegendNANA
21:00 Legend Double Dagger 18.4 15.8 84 19 5 24.1 98.90     LegendNANA
22:00 Legend Double Dagger 18.6 15.1 79 36 3 24.1 98.91     Mainly Clear
23:00 Legend Double Dagger 18.1 13.1 72 3 6 24.1 98.88     LegendNANA

Notes on Data Quality.

Legend

  • E = Estimated
  • M = Missing
  • NA = Not Available
  • ‡ = Partner data that is not subject to review by the National Climate Archives
Date modified: